EW4944 Milford CT US current weather conditions

sailwx.info

Wind from 309

Air temperature 6.7° C
Dewpoint -1.2° C

Last reported at 2019-Dec-05 17:03 UTC.
Time now 2019-Dec-05 17:45 UTC

Location: N 41°14' W 073°05'.
View on Google Maps.

See reports from other nearby stations

  
Tides and Currents Weather Stations Pressure Air Temp Water Temp Dewpoint Dewpoint Depression Visibility Wind Speed Wind Dir Waves Ship Positions
date/time (UTC)wind fromknots sea level pressurealtimeterstation pressurevisibilityair tempwater tempwave heightnotes
2019-Dec-05 17:03 309 6.7
2019-Dec-05 16:58 259 7.2
2019-Dec-05 16:53 307 7.2
2019-Dec-05 16:47 301 7.2
2019-Dec-05 16:42 292 7.2
2019-Dec-05 16:37 296 7.2
2019-Dec-05 16:32 287 7.2
2019-Dec-05 16:27 273 7.2
2019-Dec-05 16:22 277 7.2
2019-Dec-05 16:16 290 7.2
2019-Dec-05 16:11 273 7.8
2019-Dec-05 16:06 331 8.3
2019-Dec-05 16:01 273 8.3
2019-Dec-05 16:00 282 7.8
2019-Dec-05 15:51 273 8.3
2019-Dec-05 15:46 272 7.8
2019-Dec-05 15:40 270 8.3
2019-Dec-05 15:35 282 8.3
2019-Dec-05 15:30 271 7.8
2019-Dec-05 15:25 273 7.8
2019-Dec-05 15:19 331 7.8
2019-Dec-05 15:14 264 7.8
2019-Dec-05 15:09 284 7.2
2019-Dec-05 15:04 321 7.2
2019-Dec-05 14:59 296 7.2
2019-Dec-05 14:54 285 6.7
2019-Dec-05 14:48 270 6.7
2019-Dec-05 14:43 289 6.1
2019-Dec-05 14:38 282 6.1
2019-Dec-05 14:33 297 5.6
2019-Dec-05 14:28 265 5.0
2019-Dec-05 14:23 315 5.0
2019-Dec-05 14:17 265 4.4
2019-Dec-05 14:12 278 3.9
2019-Dec-05 14:07 277 3.3
2019-Dec-05 14:02 290 2.8
2019-Dec-05 13:57 294 2.2
2019-Dec-05 13:52 286 2.2
2019-Dec-05 13:46 271 1.7
2019-Dec-05 13:41 281 1.7
2019-Dec-05 13:36 269 1.1
2019-Dec-05 13:31 283 0.6
2019-Dec-05 13:26 276 0.6
2019-Dec-05 13:21 304 0.6
2019-Dec-05 13:17 275 -0.0
2019-Dec-05 13:10 316 0.6
2019-Dec-05 13:05 287 -0.0
2019-Dec-05 13:00 298 -0.0
2019-Dec-05 12:55 290 -0.6
2019-Dec-05 12:50 291 -0.6
2019-Dec-05 12:45 294 -0.6
2019-Dec-05 12:40 284 -0.6
2019-Dec-05 12:35 287 -0.6
2019-Dec-05 12:29 289 -0.6
2019-Dec-05 12:24 287 -0.6
2019-Dec-05 12:19 296 -1.1
2019-Dec-05 12:15 296 -1.1
2019-Dec-05 12:09 298 -1.1
2019-Dec-05 12:04 298 -1.1
2019-Dec-05 11:58 297 -1.1
2019-Dec-05 11:53 298 -1.1
2019-Dec-05 11:48 298 -1.1
2019-Dec-05 11:45 298 -1.1
2019-Dec-05 11:38 298 -1.1
2019-Dec-05 11:33 298 -1.1
2019-Dec-05 11:27 298 -1.1
2019-Dec-05 11:22 298 -1.1
2019-Dec-05 11:17 298 -1.1
2019-Dec-05 11:12 298 -1.1
2019-Dec-05 11:07 298 -1.1
2019-Dec-05 11:02 298 -1.7
2019-Dec-05 10:57 298 -1.7
2019-Dec-05 10:52 298 -1.7
2019-Dec-05 10:47 297 -1.7
2019-Dec-05 10:41 296 -1.7
2019-Dec-05 10:36 297 -1.7
2019-Dec-05 10:31 294 -1.7
2019-Dec-05 10:26 293 -1.7
2019-Dec-05 10:21 302 -1.7
2019-Dec-05 10:16 303 -1.7
2019-Dec-05 10:15 303 -1.7
2019-Dec-05 10:06 293 -1.7
2019-Dec-05 10:01 293 -1.7
2019-Dec-05 10:00 293 -1.7
2019-Dec-05 09:51 292 -1.7
2019-Dec-05 09:46 281 -1.7
2019-Dec-05 09:41 273 -1.7
2019-Dec-05 09:36 273 -1.1
2019-Dec-05 09:30 273 -1.1
2019-Dec-05 09:25 273 -1.1
2019-Dec-05 09:20 273 -1.1
2019-Dec-05 09:15 273 -1.1
2019-Dec-05 09:10 273 -1.1
2019-Dec-05 09:05 273 -1.1
2019-Dec-05 09:00 273 -0.6
2019-Dec-05 08:55 273 -0.6
2019-Dec-05 08:50 273 -0.6
2019-Dec-05 08:44 273 -0.6
2019-Dec-05 08:39 273 -0.6
2019-Dec-05 08:34 273 -0.6
2019-Dec-05 08:30 273 -0.6
2019-Dec-05 08:24 273 -0.6
2019-Dec-05 08:19 275 -0.6
2019-Dec-05 08:13 273 -0.0
2019-Dec-05 08:08 267 -0.0
2019-Dec-05 08:03 283 -0.0
2019-Dec-05 07:58 280 -0.0
2019-Dec-05 07:53 280 -0.0
2019-Dec-05 07:47 274 -0.0
2019-Dec-05 07:42 277 -0.0
2019-Dec-05 07:37 277 -0.0
2019-Dec-05 07:32 277 -0.0
2019-Dec-05 07:27 277 -0.0
2019-Dec-05 07:22 277 -0.0
2019-Dec-05 07:16 277 -0.0
2019-Dec-05 07:11 279 -0.0
2019-Dec-05 07:06 275 -0.0
2019-Dec-05 07:01 274 -0.0
2019-Dec-05 07:00 274 -0.0
2019-Dec-05 06:51 271 -0.0
2019-Dec-05 06:46 269 -0.0
2019-Dec-05 06:40 269 -0.0
2019-Dec-05 06:35 269 -0.0
2019-Dec-05 06:30 269 -0.0
2019-Dec-05 06:25 269 -0.0
2019-Dec-05 06:20 269 -0.0
2019-Dec-05 06:14 269 -0.0
2019-Dec-05 06:09 269 -0.0
2019-Dec-05 06:04 277 -0.0
2019-Dec-05 05:59 277 -0.0
2019-Dec-05 05:54 277 -0.0
2019-Dec-05 05:48 279 -0.0
2019-Dec-05 05:43 282 -0.0
2019-Dec-05 05:38 282 -0.0
2019-Dec-05 05:33 284 -0.6
2019-Dec-05 05:28 284 -0.6
2019-Dec-05 05:23 274 -0.6
2019-Dec-05 05:17 269 -0.6
2019-Dec-05 05:12 265 -0.6
2019-Dec-05 05:07 279 -0.6
2019-Dec-05 05:02 280 -0.6
2019-Dec-05 05:00 268 -1.1
2019-Dec-05 04:52 267 -0.6
2019-Dec-05 04:47 283 -0.6
2019-Dec-05 04:41 285 -0.6
2019-Dec-05 04:36 292 -0.6
2019-Dec-05 04:32 275 -0.6
2019-Dec-05 04:26 273 -0.6
2019-Dec-05 04:20 269 -0.6
2019-Dec-05 04:15 285 -0.6
2019-Dec-05 04:10 273 -0.6
2019-Dec-05 04:05 277 -0.6
2019-Dec-05 04:02 275 -0.6
2019-Dec-05 04:00 271 -0.6
2019-Dec-05 03:55 271 -0.6
2019-Dec-05 03:49 272 -0.6
2019-Dec-05 03:44 277 -0.6
2019-Dec-05 03:39 269 -0.6
2019-Dec-05 03:34 285 -0.6
2019-Dec-05 03:29 277 -0.6
2019-Dec-05 03:24 281 -0.6
2019-Dec-05 03:18 262 -0.6
2019-Dec-05 03:13 286 -0.6
2019-Dec-05 03:08 275 -0.6
2019-Dec-05 03:03 260 -0.6
2019-Dec-05 02:58 271 -0.6
2019-Dec-05 02:53 271 -0.6
2019-Dec-05 02:48 271 -0.0
2019-Dec-05 02:43 271 -0.0
2019-Dec-05 02:38 273 -0.0
2019-Dec-05 02:33 274 -0.0
2019-Dec-05 02:27 296 -0.0
2019-Dec-05 02:22 296 -0.0
2019-Dec-05 02:17 296 -0.0
2019-Dec-05 02:15 296 -0.0
2019-Dec-05 02:07 296 -0.0
2019-Dec-05 02:02 296 -0.0
2019-Dec-05 01:57 296 -0.0
2019-Dec-05 01:51 296 -0.0
2019-Dec-05 01:46 296 0.6
2019-Dec-05 01:41 296 0.6
2019-Dec-05 01:36 296 0.6
2019-Dec-05 01:31 296 0.6
2019-Dec-05 01:26 297 0.6
2019-Dec-05 01:21 297 0.6
2019-Dec-05 01:16 297 0.6
2019-Dec-05 01:11 292 0.6
2019-Dec-05 01:06 292 0.6
2019-Dec-05 01:01 292 0.6
2019-Dec-05 00:56 293 0.6
2019-Dec-05 00:51 296 1.1
2019-Dec-05 00:46 296 1.1
2019-Dec-05 00:45 296 0.6
2019-Dec-05 00:36 296 1.1
2019-Dec-05 00:31 292 0.6
2019-Dec-05 00:25 288 1.1
2019-Dec-05 00:21 283 1.1
2019-Dec-05 00:16 290 1.1
2019-Dec-05 00:10 317 1.1
2019-Dec-05 00:05 274 1.1
2019-Dec-05 00:00 286 1.1
2019-Dec-04 23:50 283 1.1
2019-Dec-04 23:44 296 1.1
2019-Dec-04 23:39 282 1.1
2019-Dec-04 23:34 283 1.1
2019-Dec-04 23:30 275 1.1
2019-Dec-04 23:24 282 1.1
2019-Dec-04 23:19 284 1.1
2019-Dec-04 23:13 277 1.1
2019-Dec-04 23:08 269 1.7
2019-Dec-04 23:03 287 1.7
2019-Dec-04 23:00 273 1.1
2019-Dec-04 22:53 275 1.7
2019-Dec-04 22:48 278 1.7
2019-Dec-04 22:42 286 1.7
2019-Dec-04 22:37 288 1.7
2019-Dec-04 22:32 280 2.2
2019-Dec-04 22:30 292 1.7
2019-Dec-04 22:22 284 2.2
2019-Dec-04 22:17 271 2.2
2019-Dec-04 22:11 286 2.2
2019-Dec-04 22:06 258 2.2
2019-Dec-04 22:01 273 2.8
2019-Dec-04 21:56 328 2.8
2019-Dec-04 21:51 265 2.8
2019-Dec-04 21:46 261 2.2
2019-Dec-04 21:40 286 2.8
2019-Dec-04 21:35 280 2.8
2019-Dec-04 21:30 280 2.8
2019-Dec-04 21:25 277 2.8
2019-Dec-04 21:20 286 2.8
2019-Dec-04 21:14 299 3.3
2019-Dec-04 21:09 253 3.3
2019-Dec-04 21:04 300 3.3
2019-Dec-04 20:59 304 3.3
2019-Dec-04 20:54 273 3.3
2019-Dec-04 20:48 263 3.3
2019-Dec-04 20:43 294 3.3
2019-Dec-04 20:38 271 3.3
2019-Dec-04 20:33 298 3.3
2019-Dec-04 20:28 304 3.3
2019-Dec-04 20:23 263 3.3
2019-Dec-04 20:17 277 3.3
2019-Dec-04 20:12 306 3.3
2019-Dec-04 20:07 238 3.3
2019-Dec-04 20:02 287 3.3
2019-Dec-04 19:57 267 3.3
2019-Dec-04 19:51 265 3.3
2019-Dec-04 19:46 285 3.3
2019-Dec-04 19:41 284 3.3
2019-Dec-04 19:36 288 3.3
2019-Dec-04 19:32 281 3.3
2019-Dec-04 19:25 220 3.3
2019-Dec-04 19:20 255 3.3
2019-Dec-04 19:15 293 3.3
2019-Dec-04 19:10 240 3.3
2019-Dec-04 19:05 269 3.9
2019-Dec-04 19:00 263 3.9
2019-Dec-04 18:55 294 3.9
2019-Dec-04 18:49 290 3.3
2019-Dec-04 18:44 274 3.3
2019-Dec-04 18:39 276 3.3
2019-Dec-04 18:34 273 3.3
2019-Dec-04 18:29 260 3.3
2019-Dec-04 18:24 284 3.3
2019-Dec-04 18:19 265 3.3
2019-Dec-04 18:14 266 3.3
2019-Dec-04 18:09 248 3.3
2019-Dec-04 18:04 281 3.3
2019-Dec-04 17:58 277 3.3
2019-Dec-04 17:53 290 3.3
2019-Dec-04 17:48 278 3.3
2019-Dec-04 17:45 264 2.8
2019-Dec-04 17:38 280 2.8
2019-Dec-04 17:33 277 2.8
2019-Dec-04 17:28 270 2.8
2019-Dec-04 17:23 288 2.8
2019-Dec-04 17:18 288 2.8
2019-Dec-04 17:12 279 2.8
2019-Dec-04 17:07 266 2.8
2019-Dec-04 17:02 286 2.8
2019-Dec-04 16:57 280 2.8
2019-Dec-04 16:52 273 2.8
2019-Dec-04 16:47 290 2.8
2019-Dec-04 16:42 276 2.8
2019-Dec-04 16:37 275 2.8
2019-Dec-04 16:32 288 2.8
2019-Dec-04 16:27 288 2.8
2019-Dec-04 16:22 291 2.8
2019-Dec-04 16:16 271 2.2
2019-Dec-04 16:11 273 2.2
2019-Dec-04 16:06 288 2.2
2019-Dec-04 16:01 290 2.2
2019-Dec-04 15:56 285 1.7
2019-Dec-04 15:51 273 1.7
2019-Dec-04 15:47 274 1.7
2019-Dec-04 15:41 261 1.7
2019-Dec-04 15:35 289 1.7
2019-Dec-04 15:30 290 1.1
2019-Dec-04 15:25 289 1.1
2019-Dec-04 15:20 286 1.1
2019-Dec-04 15:16 280 0.6
2019-Dec-04 15:15 275 1.1
2019-Dec-04 15:10 285 1.1
2019-Dec-04 15:04 273 0.6
2019-Dec-04 14:59 284 0.6
2019-Dec-04 14:54 267 0.6
2019-Dec-04 14:49 297 0.6
2019-Dec-04 14:44 279 0.6
2019-Dec-04 14:38 277 0.6
2019-Dec-04 14:33 276 -0.0
2019-Dec-04 14:28 271 -0.0
2019-Dec-04 14:23 292 -0.0
2019-Dec-04 14:18 297 -0.0
2019-Dec-04 14:12 284 -0.6
2019-Dec-04 14:07 264 -0.6
2019-Dec-04 14:02 282 -0.6
2019-Dec-04 14:00 277 -1.1
2019-Dec-04 13:52 292 -0.6
2019-Dec-04 13:47 281 -1.1
2019-Dec-04 13:41 280 -1.1
2019-Dec-04 13:36 281 -1.1
2019-Dec-04 13:31 281 -1.7
2019-Dec-04 13:26 279 -1.7
2019-Dec-04 13:21 286 -1.7
2019-Dec-04 13:15 273 -1.7
2019-Dec-04 13:10 275 -1.7
2019-Dec-04 13:05 284 -1.7
2019-Dec-04 13:01 288 -2.2
2019-Dec-04 13:00 288 -1.7
2019-Dec-04 12:55 268 -2.2
2019-Dec-04 12:49 286 -2.2
2019-Dec-04 12:44 302 -2.2
2019-Dec-04 12:39 287 -2.2
2019-Dec-04 12:34 279 -2.2
2019-Dec-04 12:29 296 -2.2
2019-Dec-04 12:24 298 -2.2
2019-Dec-04 12:18 298 -2.2
2019-Dec-04 12:13 298 -2.2
2019-Dec-04 12:08 298 -2.2
2019-Dec-04 12:03 298 -2.2
2019-Dec-04 11:58 299 -2.2
2019-Dec-04 11:52 278 -2.2
2019-Dec-04 11:47 281 -2.2
2019-Dec-04 11:42 252 -2.2
2019-Dec-04 11:37 296 -2.2
2019-Dec-04 11:32 296 -2.2
2019-Dec-04 11:27 300 -2.2
2019-Dec-04 11:21 300 -2.2
2019-Dec-04 11:16 300 -2.2
2019-Dec-04 11:11 307 -2.2
2019-Dec-04 11:06 308 -2.8
2019-Dec-04 11:01 308 -2.8
2019-Dec-04 10:56 308 -2.8
2019-Dec-04 10:50 308 -2.8
2019-Dec-04 10:45 308 -2.8
2019-Dec-04 10:40 308 -2.8
2019-Dec-04 10:35 308 -2.8
2019-Dec-04 10:31 308 -2.8
2019-Dec-04 10:30 308 -2.8
2019-Dec-04 10:25 308 -2.8
2019-Dec-04 10:19 308 -2.8
2019-Dec-04 10:14 308 -2.8
2019-Dec-04 10:09 308 -2.8
2019-Dec-04 10:04 308 -2.8
2019-Dec-04 09:59 308 -2.8
2019-Dec-04 09:54 308 -2.8
2019-Dec-04 09:48 308 -2.8
2019-Dec-04 09:43 308 -2.8
2019-Dec-04 09:38 309 -2.8
2019-Dec-04 09:33 309 -2.8
2019-Dec-04 09:28 310 -2.8
2019-Dec-04 09:23 311 -2.8
2019-Dec-04 09:18 311 -2.8
2019-Dec-04 09:13 311 -2.8
2019-Dec-04 09:07 313 -2.8
2019-Dec-04 09:02 313 -2.8
2019-Dec-04 08:57 314 -2.8
2019-Dec-04 08:52 315 -2.8
2019-Dec-04 08:47 348 -2.8
2019-Dec-04 08:42 348 -2.8
2019-Dec-04 08:37 348 -2.8
2019-Dec-04 08:32 348 -3.3
2019-Dec-04 08:27 348 -2.8
2019-Dec-04 08:22 348 -2.8
2019-Dec-04 08:16 348 -2.8
2019-Dec-04 08:11 348 -2.8
2019-Dec-04 08:06 348 -3.3
2019-Dec-04 08:01 348 -3.3
2019-Dec-04 07:56 348 -3.3
2019-Dec-04 07:51 348 -3.3
2019-Dec-04 07:46 009 -3.3
2019-Dec-04 07:45 340 -3.3
2019-Dec-04 07:36 350 -3.3
2019-Dec-04 07:31 331 -3.3
2019-Dec-04 07:25 318 -3.3
2019-Dec-04 07:21 318 -3.3
2019-Dec-04 07:16 308 -3.3
2019-Dec-04 07:10 308 -3.3
2019-Dec-04 07:05 293 -3.3
2019-Dec-04 07:00 291 -3.3
2019-Dec-04 06:55 323 -3.3
2019-Dec-04 06:50 315 -3.3
2019-Dec-04 06:44 291 -3.3
2019-Dec-04 06:39 300 -3.3
2019-Dec-04 06:34 293 -3.3
2019-Dec-04 06:29 306 -3.3
2019-Dec-04 06:24 302 -3.3
2019-Dec-04 06:18 312 -3.3
2019-Dec-04 06:13 287 -3.3
2019-Dec-04 06:08 288 -3.3
2019-Dec-04 06:03 295 -3.3
2019-Dec-04 05:58 290 -3.3
2019-Dec-04 05:53 286 -3.3
2019-Dec-04 05:48 294 -3.3
2019-Dec-04 05:42 296 -3.3
2019-Dec-04 05:37 302 -3.3
2019-Dec-04 05:32 302 -3.3
2019-Dec-04 05:30 302 -3.3
2019-Dec-04 05:22 304 -3.3
2019-Dec-04 05:17 304 -3.3
2019-Dec-04 05:12 304 -3.3
2019-Dec-04 05:06 304 -3.3
2019-Dec-04 05:01 304 -3.3
2019-Dec-04 04:56 306 -2.8
2019-Dec-04 04:51 310 -2.8
2019-Dec-04 04:46 292 -3.3
2019-Dec-04 04:40 292 -2.8
2019-Dec-04 04:35 275 -2.8
2019-Dec-04 04:30 288 -2.8
2019-Dec-04 04:25 271 -2.8
2019-Dec-04 04:20 283 -2.8
2019-Dec-04 04:15 300 -2.8
2019-Dec-04 04:09 294 -2.8
2019-Dec-04 04:04 294 -2.8
2019-Dec-04 03:59 287 -2.8
2019-Dec-04 03:54 300 -2.8
2019-Dec-04 03:49 288 -2.8
2019-Dec-04 03:44 287 -2.8
2019-Dec-04 03:38 304 -2.8
2019-Dec-04 03:33 299 -2.8
2019-Dec-04 03:28 296 -2.8
2019-Dec-04 03:23 294 -2.8
2019-Dec-04 03:18 302 -2.8
2019-Dec-04 03:13 315 -2.8
2019-Dec-04 03:08 298 -2.8
2019-Dec-04 03:02 282 -2.8
2019-Dec-04 02:57 300 -2.8
2019-Dec-04 02:52 300 -2.8
2019-Dec-04 02:47 303 -2.8
2019-Dec-04 02:42 309 -2.8
2019-Dec-04 02:37 313 -2.8
2019-Dec-04 02:31 313 -2.2
2019-Dec-04 02:26 313 -2.2
2019-Dec-04 02:21 313 -2.2
2019-Dec-04 02:16 314 -2.2
2019-Dec-04 02:15 314 -2.8
2019-Dec-04 02:06 321 -2.2
2019-Dec-04 02:00 306 -2.2
2019-Dec-04 01:55 302 -2.2
2019-Dec-04 01:50 296 -1.7
2019-Dec-04 01:45 294 -1.7
2019-Dec-04 01:35 292 -1.7
2019-Dec-04 01:30 296 -1.7
2019-Dec-04 01:24 296 -1.7
2019-Dec-04 01:19 296 -1.7
2019-Dec-04 01:14 297 -1.7
2019-Dec-04 01:09 294 -1.1
2019-Dec-04 01:04 290 -1.1
2019-Dec-04 00:59 297 -1.1
2019-Dec-04 00:54 278 -1.1
2019-Dec-04 00:49 287 -1.1
2019-Dec-04 00:44 287 -1.1
2019-Dec-04 00:38 331 -1.1
2019-Dec-04 00:33 290 -1.1
2019-Dec-04 00:28 288 -1.1
2019-Dec-04 00:23 299 -0.6
2019-Dec-04 00:18 318 -0.6
2019-Dec-04 00:15 310 -1.1
2019-Dec-04 00:08 302 -0.6
2019-Dec-04 00:03 282 -0.6
2019-Dec-03 23:58 292 -0.6
2019-Dec-03 23:53 292 -0.6
2019-Dec-03 23:48 290 -0.6
2019-Dec-03 23:42 271 -0.6
2019-Dec-03 23:37 269 -0.6
2019-Dec-03 23:32 292 -0.6
2019-Dec-03 23:27 292 -0.6
2019-Dec-03 23:22 280 -0.6
2019-Dec-03 23:18 290 -0.6
2019-Dec-03 23:12 284 -0.6
2019-Dec-03 23:07 286 -0.6
2019-Dec-03 23:02 308 -0.6
2019-Dec-03 22:56 276 -0.6
2019-Dec-03 22:51 281 -0.6
2019-Dec-03 22:46 284 -0.0
2019-Dec-03 22:41 281 -0.0
2019-Dec-03 22:36 286 -0.0
2019-Dec-03 22:30 283 -0.0
2019-Dec-03 22:25 295 -0.0
2019-Dec-03 22:20 298 -0.0
2019-Dec-03 22:15 293 -0.0
2019-Dec-03 22:10 323 0.6
2019-Dec-03 22:05 285 0.6
2019-Dec-03 21:59 297 0.6
2019-Dec-03 21:54 309 0.6
2019-Dec-03 21:49 315 0.6
2019-Dec-03 21:44 290 0.6
2019-Dec-03 21:39 281 0.6
2019-Dec-03 21:33 288 1.1
2019-Dec-03 21:28 303 1.1
2019-Dec-03 21:23 283 1.1
2019-Dec-03 21:18 293 1.1
2019-Dec-03 21:13 269 1.7
2019-Dec-03 21:08 336 1.7
2019-Dec-03 21:02 291 1.7
2019-Dec-03 20:57 290 1.7
2019-Dec-03 20:52 290 2.2
2019-Dec-03 20:47 290 2.2
2019-Dec-03 20:42 310 2.2
2019-Dec-03 20:36 339 2.8
2019-Dec-03 20:31 296 2.8
2019-Dec-03 20:26 266 2.8
2019-Dec-03 20:21 302 3.3
2019-Dec-03 20:16 274 2.8
2019-Dec-03 20:11 267 3.3
2019-Dec-03 20:05 306 3.3
2019-Dec-03 20:00 341 3.3
2019-Dec-03 19:55 290 3.3
2019-Dec-03 19:50 292 3.3
2019-Dec-03 19:40 298 3.3
2019-Dec-03 19:34 267 3.3
2019-Dec-03 19:29 305 3.3
2019-Dec-03 19:24 279 3.3
2019-Dec-03 19:19 292 2.8
2019-Dec-03 19:14 2.8
2019-Dec-03 19:09 300 2.8
2019-Dec-03 19:03 298 2.8
2019-Dec-03 18:58 313 2.8
2019-Dec-03 18:53 286 2.8
2019-Dec-03 18:48 280 2.8
2019-Dec-03 18:43 305 2.8
2019-Dec-03 18:38 272 2.8
2019-Dec-03 18:32 275 2.8
2019-Dec-03 18:27 279 2.8
2019-Dec-03 18:22 288 2.8
2019-Dec-03 18:17 289 2.8
2019-Dec-03 18:12 304 2.8
2019-Dec-03 18:06 289 2.8
2019-Dec-03 18:01 276 2.8
2019-Dec-03 17:56 327 2.8
2019-Dec-03 17:51 282 2.8
2019-Dec-03 17:46 306 2.8
2019-Dec-03 17:41 286 2.8
2019-Dec-03 17:36 304 2.8
2019-Dec-03 17:31 314 2.2
2019-Dec-03 17:26 312 2.2
2019-Dec-03 17:20 303 2.2
2019-Dec-03 17:15 292 2.2
2019-Dec-03 17:10 283 2.8
2019-Dec-03 17:05 294 2.8
2019-Dec-03 17:01 288 2.2
2019-Dec-03 17:00 284 2.8